Location: Red Rock Canyon
(36.1333°N, 115.4333°W)
Time: 18:30:18
(UTC-07:00)

ISS - Visible Passes

Search period start: 16 September 2014 00:00
Search period end: 26 September 2014 00:00
Orbit: 414 x 417 km, 51.6° (Epoch: 16 September)

Date Brightness Start Highest point End Pass type
(mag) Time Alt. Az. Time Alt. Az. Time Alt. Az.
16 Sep -1.4 05:02:19 19° NW 05:02:35 19° NNW 05:05:05 10° NNE visible
17 Sep -0.6 04:15:40 17° NNE 04:15:40 17° NNE 04:16:43 10° NNE visible
18 Sep -0.6 05:01:50 10° NNW 05:02:17 10° NNW 05:02:53 10° N visible
19 Sep -0.2 04:15:02 10° N 04:15:02 10° N 04:15:08 10° N visible
25 Sep -0.4 05:48:15 10° N 05:49:52 13° NNE 05:51:28 10° NE visible
